Location: Asheville, NC
(35.6000°N, 82.5500°W)
Time: 02:33:23
(UTC-05:00)

CUTE 1.7 + AOD 2 - Pass Details

Date: 10 February 2018
Orbit: 594 x 614 km, 97.6° (Epoch: 18 February)

Event Time Altitude Azimuth Distance (km) Brightness Sun altitude
Rises 19:57:24 0° 217° (SW) 2,837 ? -22.9°
Reaches altitude 10° 20:01:42 10° 260° (W) 1,936 ? -23.7°
Maximum altitude 20:02:20 10° 269° (W) 1,917 ? -23.9°
Drops below altitude 10° 20:02:58 10° 277° (W) 1,936 ? -24.0°
Sets 20:07:17 0° 320° (NW) 2,840 ? -24.9°
